User: anonymous   Login
Location: Eschertshofen
(49.3064°N, 11.5756°E)
Time: 22:00:59
(UTC+00:00)
Language:

Cosmos 1626 - Orbit

View from above orbital plane
View from above orbital plane
View from above satellite
View from above satellite

Ground track
Ground track

The orbit data is extracted from the following two-line orbital elements,

1 15494U 85009A   20327.87663882 +.00001804 +00000-0 +72263-4 0  9994
2 15494 082.4803 072.3529 0002090 016.8645 343.2661 15.24410061959517
Epoch (UTC): 22 November 2020 21:02:21
Eccentricity: 0.0002090
inclination: 82.4803°
perigee height: 491 km
apogee height: 494 km
right ascension of ascending node: 72.3529°
argument of perigee: 16.8645°
revolutions per day: 15.24410061
mean anomaly at epoch: 343.2661°
orbit number at epoch: 95951

The dashed part of the orbit path shows where the satellite is in the earth's shadow,  

DLR